カタログに戻る

STARLINK-6154

運用中通信VLEO
NORAD 57123·PAYLOAD·🇺🇸 United States

打ち上げ Jun 23, 2023 から Cape Canaveral Space Force Station

Loading…

次のパス (今後24時間)

TLE

最新Source: CelesTrak SupGP

元期: Sep 15, 2026, 02:19 UTC

1 57123C 23090Y   26258.09701389  .00014578  00000+0  52779-3 0  2587
2 57123  43.0003 291.8938 0001372 260.3587 314.5754 15.27584010    17

AllMySatでSTARLINK-6154をリアルタイム追跡

Download on the App Store